"TOA5","AWS1","CR1000","7964","CR1000.Std.14","CPU:AWS1_114.CR1","64363","TBL110"
"TIMESTAMP","RECORD","Wind_spd_WVc(1)","Wind_spd_WVc(2)","Air_Temp_Avg","Humidity_Avg","SW_upper_Wm2_Avg","Rain_Tot","Press_Avg","Issui_Tot","Depth_cm","SR50A_Raw","Quality","Ground_Temp_Avg(1)","Ground_Temp_Avg(2)","SW_lower_Wm2_Avg","Albedo_Avg","SWC_per(1)","SWC_per(2)","Period(1)","Period(2)"
"TS","RN","","","","","","","","","","","","","","","","","","",""
"","","WVc","WVc","Avg","Avg","Avg","Tot","Avg","Tot","Smp","Smp","Smp","Avg","Avg","Avg","Avg","Smp","Smp","Smp","Smp"
"2016-12-19 00:00:00",266893,0.525,177.7,0.549,70.63,0,0,873.6288,0,10.15,3.074,185,3.188,3.978,0,0,51.66,59.32,33.7,35.52
"2016-12-19 00:10:00",266894,0.384,278.7,1.141,68.62,0,0,873.5971,0,9.71,3.076,191,3.188,3.974,0.1289324,0,51.66,59.32,33.7,35.52
"2016-12-19 00:20:00",266895,0.448,259.1,1.16,70.24,0,0,873.4559,0,9.3,3.082,189,3.188,3.975,0.01516852,0,51.6,59.26,33.69,35.51
"2016-12-19 00:30:00",266896,0.473,186.6,0.562,72.63,0,0,873.4539,0,9.95,3.078,189,3.188,3.983,0,0,51.66,59.26,33.7,35.51
"2016-12-19 00:40:00",266897,0.513,173.7,0.558,73.5,0,0,873.4348,0,9.6,3.08,189,3.198,3.978,0,0,51.66,59.26,33.7,35.51
"2016-12-19 00:50:00",266898,0.476,178.3,0.708,73.65,0,0,873.4033,0,9.85,3.077,186,3.197,3.98,0.00379213,0,51.66,59.26,33.7,35.51
"2016-12-19 01:00:00",266899,0.448,172.1,0.559,75.41,0,0,873.4074,0,9.85,3.079,178,3.192,3.978,0,0,51.66,59.26,33.7,35.51
"2016-12-19 01:10:00",266900,0.716,193.6,0.705,76.15,0,0,873.4074,0,9.55,3.081,177,3.194,3.986,0.007584261,0,51.66,59.26,33.7,35.51
"2016-12-19 01:20:00",266901,0.537,177.9,0.454,78.5,0,0,873.4074,0,9.47,3.083,178,3.196,3.982,0,0,51.6,59.26,33.69,35.51
"2016-12-19 01:30:00",266902,0.713,175.3,0.587,79.13,0,0,873.4138,0,9.5,3.081,182,3.203,3.991,0.0379213,0,51.66,59.26,33.7,35.51
"2016-12-19 01:40:00",266903,0.846,174.7,0.671,78.19,0,0,873.4074,0,9.59,3.082,174,3.194,3.984,0.06825834,0,51.66,59.26,33.7,35.51
"2016-12-19 01:50:00",266904,0.764,179.2,0.425,79.91,0,0,873.3864,0,9.8,3.079,177,3.192,3.982,0,0,51.66,59.26,33.7,35.51
"2016-12-19 02:00:00",266905,1.031,171.7,0.61,78.14,0,0,873.203,0,9.5,3.082,191,3.187,3.98,0,0,51.66,59.26,33.7,35.51
"2016-12-19 02:10:00",266906,1.083,167.8,0.732,75.43,0,0,873.1398,0.5,9.65,3.079,178,3.189,3.976,0.01516852,0,51.66,59.26,33.7,35.51
"2016-12-19 02:20:00",266907,1.201,166.9,0.582,74.58,0,0,873.0638,0,9.4,3.082,190,3.188,3.972,0,0,51.66,59.26,33.7,35.51
"2016-12-19 02:30:00",266908,1.205,171.4,0.81,70.76,0,0,872.9584,0,9.98,3.075,190,3.188,3.978,0,0,51.6,59.26,33.69,35.51
"2016-12-19 02:40:00",266909,1.6,172.6,1.05,67.39,0,0,872.8868,0,9.56,3.078,185,3.188,3.979,0.01137639,0,51.6,59.26,33.69,35.51
"2016-12-19 02:50:00",266910,1.601,178.1,1.007,66.66,0,0,872.9016,0,9.6,3.079,181,3.188,3.989,0,0,51.66,59.26,33.7,35.51
"2016-12-19 03:00:00",266911,1.541,174.4,0.858,65.58,0,0,872.8383,0,9.5,3.08,189,3.188,3.977,0,0,51.6,59.26,33.69,35.51
"2016-12-19 03:10:00",266912,1.472,192.8,0.87,62.81,0,0,872.6718,0,9.65,3.078,190,3.188,3.969,0,0,51.6,59.26,33.69,35.51
"2016-12-19 03:20:00",266913,1.641,192,1.013,58.9,0,0,872.6529,0,9.35,3.081,190,3.188,3.971,0,0,51.6,59.26,33.69,35.51
"2016-12-19 03:30:00",266914,1.102,198.6,0.954,56.82,0,0,872.6486,0,9.71,3.077,192,3.188,3.97,0,0,51.6,59.26,33.69,35.51
"2016-12-19 03:40:00",266915,0.908,198.5,1.369,49.73,0,0,872.4443,0,9.61,3.076,191,3.188,3.973,0,0,51.66,59.26,33.7,35.51
"2016-12-19 03:50:00",266916,0.913,246.9,1.49,45.71,0,0,872.3368,0,9.56,3.076,190,3.188,3.973,0,0,51.66,59.26,33.7,35.51
"2016-12-19 04:00:00",266917,0.807,214.7,1.773,38.47,0,0,872.1197,0,9.28,3.075,189,3.188,3.976,0.03033704,0,51.6,59.26,33.69,35.51
"2016-12-19 04:10:00",266918,0.76,208,2.048,34.24,0,0,871.9173,0,9.47,3.074,189,3.188,3.986,0.01137639,0,51.66,59.26,33.7,35.51
"2016-12-19 04:20:00",266919,0.796,179.6,1.731,36.54,0,0,871.8899,0,9.22,3.078,186,3.188,3.982,0,0,51.6,59.26,33.69,35.51
"2016-12-19 04:30:00",266920,0.377,86.4,1.05,41.63,0,0,872.0185,0,9.05,3.085,189,3.188,3.986,0.00379213,0,51.6,59.26,33.69,35.51
"2016-12-19 04:40:00",266921,0.07,335.7,0.639,41.37,0,0,872.2862,0,9.4,3.083,189,3.191,3.972,0,0,51.66,59.26,33.7,35.51
"2016-12-19 04:50:00",266922,0.287,173,-0.472,53.93,0,0,872.3958,0,9.42,3.093,190,3.199,4.004,0,0,51.6,59.26,33.69,35.51
"2016-12-19 05:00:00",266923,0.11,165.8,-0.751,53.06,0,0,872.4295,0,9.2,3.093,190,3.214,4.052,0,0,51.6,59.26,33.69,35.51
"2016-12-19 05:10:00",266924,0.411,64.54,-0.238,44.82,0,0,872.3958,0,9.45,3.081,189,3.193,4.053,0.3754209,0,51.6,59.26,33.69,35.51
"2016-12-19 05:20:00",266925,0.523,149.6,0.729,39.62,0,0,872.518,0,9.17,3.086,189,3.205,4.053,0.553651,0,51.6,59.26,33.69,35.51
"2016-12-19 05:30:00",266926,0.645,162.9,0.137,43.57,0,0,872.5138,0,9.5,3.082,186,3.219,4.051,0,0,51.6,59.26,33.69,35.51
"2016-12-19 05:40:00",266927,0.925,174.8,0.456,44.09,0,0,872.5433,0,9.19,3.087,182,3.192,4.052,0.02654491,0,51.66,59.26,33.7,35.51
"2016-12-19 05:50:00",266928,0.691,184,0.213,47.23,0,0,872.6486,0,9.35,3.082,190,3.198,4.053,0,0,51.66,59.2,33.7,35.5
"2016-12-19 06:00:00",266929,0.698,180.4,0.459,48.36,0,0,872.6486,0,9.54,3.084,186,3.176,4.053,0.02654491,0,51.6,59.26,33.69,35.51
"2016-12-19 06:10:00",266930,0.656,174.7,-0.08,56.52,0,0,872.8152,0,8.94,3.091,190,3.151,4.053,0,0,51.6,59.26,33.69,35.51
"2016-12-19 06:20:00",266931,0.842,169.1,-0.342,61.09,0,0,872.9016,0,8.94,3.091,173,3.155,4.053,0.00379213,0,51.6,59.26,33.69,35.51
"2016-12-19 06:30:00",266932,0.788,165.3,-0.18,61.07,0,0,872.9543,0,9.38,3.088,189,3.153,4.053,0.00379213,0,51.66,59.26,33.7,35.51
"2016-12-19 06:40:00",266933,0.782,168.5,-0.386,61.28,0,0,872.9796,0,9.29,3.089,186,3.153,4.053,0,0,51.6,59.2,33.69,35.5
"2016-12-19 06:50:00",266934,0.953,170.2,-0.308,64.9,0,0,873.0386,0,9.38,3.088,189,3.16,4.053,0.174438,0,51.6,59.2,33.69,35.5
"2016-12-19 07:00:00",266935,0.919,163.6,-0.163,70.04,0.1691177,0,873.0787,0,9.69,3.084,185,3.156,4.053,1.28174,1.27,51.66,59.2,33.7,35.5
"2016-12-19 07:10:00",266936,0.925,166.4,0.235,68.59,4.49145,0,872.9648,0,9.27,3.087,189,3.195,4.053,4.508843,1.102,51.6,59.2,33.69,35.5
"2016-12-19 07:20:00",266937,0.436,296.3,0.623,62.76,12.78608,0,873.0976,0,9.51,3.079,190,3.17,4.052,9.431028,0.753,51.6,59.2,33.69,35.5
"2016-12-19 07:30:00",266938,0.588,0.986,1.022,62.24,18.64227,0,873.1545,0,9.41,3.08,185,3.188,4.033,12.93875,0.694,51.6,59.2,33.69,35.5
"2016-12-19 07:40:00",266939,0.651,332.6,1.154,70.94,22.19374,0,873.1545,0,9.31,3.08,181,3.185,3.999,15.55153,0.701,51.6,59.2,33.69,35.5
"2016-12-19 07:50:00",266940,0.64,339.8,1.3,71.73,26.58294,0,873.1545,0,8.83,3.085,178,3.187,3.973,19.05545,0.714,51.6,59.2,33.69,35.5
"2016-12-19 08:00:00",266941,1.08,1.688,1.206,72.86,32.49026,0,873.1545,0,9.51,3.077,189,3.188,3.97,38.39911,1.182,51.6,59.2,33.69,35.5
"2016-12-19 08:10:00",266942,0.684,319.7,1.463,71.81,27.16108,0,873.2493,0,9.01,3.081,181,3.188,3.989,34.52356,1.264,51.66,59.2,33.7,35.5
"2016-12-19 08:20:00",266943,0.434,157.7,0.963,72.54,35.55797,0,873.1672,0,9.15,3.085,182,3.189,4.038,49.15359,1.391,51.6,59.2,33.69,35.5
"2016-12-19 08:30:00",266944,0.454,112.7,0.551,72.57,68.12296,0,873.1545,0,9.2,3.085,177,3.209,4.051,58.96004,0.969,51.6,59.2,33.69,35.5
"2016-12-19 08:40:00",266945,0.35,143.8,0.821,68.75,44.37175,0,873.1545,0,9.31,3.08,190,3.255,4.056,66.36228,1.503,51.6,59.2,33.69,35.5
"2016-12-19 08:50:00",266946,0.09,322.4,1.591,64.04,48.39125,0,873.1481,0,9.07,3.079,189,3.204,4.119,71.25792,1.474,51.6,59.2,33.69,35.5
"2016-12-19 09:00:00",266947,0.194,114.9,1.773,61.13,43.53796,0,873.1355,0,9.12,3.077,190,3.189,4.118,65.22843,1.498,51.6,59.2,33.69,35.5
"2016-12-19 09:10:00",266948,0.094,260.3,2.147,59.55,38.73926,0,873.193,0,9.13,3.076,189,3.186,4.091,46.13829,1.191,51.6,59.2,33.69,35.5
"2016-12-19 09:20:00",266949,0.086,43.06,2.223,61.58,48.55305,0,873.3224,0,9.24,3.075,184,3.18,4.041,54.80752,1.153,51.6,59.2,33.69,35.5
"2016-12-19 09:30:00",266950,0.294,324.1,2.201,66.05,69.30833,0,873.325,0,9.5,3.073,189,3.23,4.015,60.34277,0.95,51.6,59.26,33.69,35.51
"2016-12-19 09:40:00",266951,0.485,347.9,2.283,67.9,78.4013,0,873.318,0,9.42,3.073,189,3.238,3.993,65.41047,0.903,51.55,59.2,33.68,35.5
"2016-12-19 09:50:00",266952,0.364,330.3,2.447,66.5,131.7006,0,873.203,0,9.48,3.071,189,3.2,3.974,68.76119,0.895,51.6,59.2,33.69,35.5
"2016-12-19 10:00:00",266953,0.59,339.6,2.554,66.17,49.64934,0,873.1917,0,9.58,3.07,189,3.19,3.949,76.83762,1.547,51.55,59.2,33.68,35.5
"2016-12-19 10:10:00",266954,0.541,352.5,2.529,67.84,52.43636,0,873.1809,0,9.48,3.071,186,3.187,3.973,82.72404,1.578,51.6,59.2,33.69,35.5
"2016-12-19 10:20:00",266955,0.218,340.3,2.66,68.08,56.44646,0,873.0798,0,10.04,3.065,189,3.186,3.968,87.92101,1.575,51.6,59.2,33.69,35.5
"2016-12-19 10:30:00",266956,0.439,322.3,2.9,65.28,92.11808,0,873.0608,0,9.14,3.073,189,3.186,3.982,96.53372,1.171,51.6,59.2,33.69,35.5
"2016-12-19 10:40:00",266957,0.565,308.1,2.739,65.16,156.4199,0,873.0693,0,9.24,3.072,190,3.186,4.025,109.4832,0.98,51.6,59.2,33.69,35.5
"2016-12-19 10:50:00",266958,0.463,332.6,3.077,65.43,176.5066,0,873.0629,0,9.46,3.066,189,3.186,4.049,128.1872,0.958,51.6,59.2,33.69,35.5
"2016-12-19 11:00:00",266959,0.367,322.9,3.621,61.69,199.2628,0,872.9191,0,9.41,3.065,195,3.186,4.048,184.5153,1.083,51.6,59.2,33.69,35.5
"2016-12-19 11:10:00",266960,0.493,310,4.059,59.89,353.5439,0,872.7883,0,8.97,3.066,190,3.184,4.051,212.2604,0.682,51.66,59.2,33.7,35.5
"2016-12-19 11:20:00",266961,0.542,359.5,4.345,59.72,338.3813,0,872.715,0,9.3,3.063,189,3.125,4.043,197.1183,0.592,51.6,59.2,33.69,35.5
"2016-12-19 11:30:00",266962,0.485,320.5,4.322,60.35,520.2883,0,872.468,0,9.12,3.066,185,3.141,3.98,206.312,0.42,51.66,59.2,33.7,35.5
"2016-12-19 11:40:00",266963,0.44,334.2,4.476,59.99,451.371,0,872.2968,0,8.95,3.064,181,3.126,3.977,202.1499,0.452,51.6,59.2,33.69,35.5
"2016-12-19 11:50:00",266964,0.456,315.7,5.029,56.54,297.4622,0,872.0359,0,9.03,3.061,186,3.143,3.95,201.5376,0.789,51.6,59.2,33.69,35.5
"2016-12-19 12:00:00",266965,0.406,333,5.284,53.69,156.6572,0,871.881,0,9.48,3.052,184,3.103,3.892,201.3965,1.345,51.55,59.2,33.68,35.5
"2016-12-19 12:10:00",266966,0.55,142.7,6.649,33.18,314.9886,0,871.5961,0,9.81,3.043,191,3.084,3.89,161.3159,0.677,51.6,59.14,33.69,35.48
"2016-12-19 12:20:00",266967,0.714,149,7.077,32.81,539.4937,0,871.3591,0,8.89,3.051,194,3.092,3.85,163.3641,0.308,51.55,59.2,33.68,35.5
"2016-12-19 12:30:00",266968,0.824,128.8,7.189,26.08,452.2271,0,871.2757,0,9.05,3.05,189,3.047,3.819,144.7557,0.324,51.6,59.2,33.69,35.5
"2016-12-19 12:40:00",266969,0.287,123,7.06,28.03,346.0787,0,871.048,0,9.17,3.05,190,3.024,3.802,121.7902,0.362,51.55,59.14,33.68,35.48
"2016-12-19 12:50:00",266970,0.506,75.51,7.057,27.86,292.3792,0,870.8585,0,9.2,3.05,189,3.017,3.807,93.05814,0.321,51.6,59.2,33.69,35.5
"2016-12-19 13:00:00",266971,0.394,305.6,6.537,39.51,172.463,0,870.8522,0,9.38,3.054,189,3.011,3.848,83.14555,0.503,51.6,59.2,33.69,35.5
"2016-12-19 13:10:00",266972,0.379,305.9,5.61,51.78,80.7094,0,870.7805,0,9.24,3.057,185,2.973,3.898,78.31203,1.201,51.55,59.14,33.68,35.48
"2016-12-19 13:20:00",266973,0.435,295.1,5.373,53.48,131.7952,0,870.5995,0,9.13,3.059,177,2.973,3.836,81.72305,0.748,51.6,59.2,33.69,35.5
"2016-12-19 13:30:00",266974,0.702,298.9,5.312,53.28,141.2765,0,870.5995,0,9.66,3.054,190,2.999,3.83,83.72384,0.647,51.55,59.14,33.68,35.48
"2016-12-19 13:40:00",266975,0.334,295.4,5.311,57.08,113.7939,0,870.6058,0,9.33,3.057,185,3.025,3.829,66.80951,0.592,51.55,59.2,33.68,35.5
"2016-12-19 13:50:00",266976,0.58,289.7,5.022,60.22,83.05,0,870.709,0,9.44,3.059,192,3.049,3.83,52.52785,0.634,51.6,59.14,33.69,35.48
"2016-12-19 14:00:00",266977,0.427,308,4.738,62.5,56.5807,0,870.857,0,9.59,3.059,182,3.043,3.862,36.14368,0.647,51.6,59.2,33.69,35.5
"2016-12-19 14:10:00",266978,0.362,286.9,4.877,60.44,69.31981,0,870.8654,0,9.24,3.06,189,3.026,3.878,36.7014,0.548,51.55,59.14,33.68,35.48
"2016-12-19 14:20:00",266979,0.267,278.6,4.838,62.44,55.8091,0,870.9114,0,9.22,3.06,189,3.02,3.902,38.36433,0.701,51.6,59.2,33.69,35.5
"2016-12-19 14:30:00",266980,0.249,296.7,5.107,60.33,53.11246,0,870.9362,0,8.88,3.063,191,3.07,3.935,35.61428,0.67,51.6,59.14,33.69,35.48
"2016-12-19 14:40:00",266981,0.411,288.5,4.895,59.27,36.28699,0,870.9429,0,8.99,3.063,190,3.087,3.962,23.56251,0.65,51.6,59.14,33.69,35.48
"2016-12-19 14:50:00",266982,0.378,290.1,4.663,60.1,29.3864,0,870.9445,0,8.99,3.064,190,3.093,3.973,19.07633,0.649,51.6,59.14,33.69,35.48
"2016-12-19 15:00:00",266983,0.27,279.2,4.691,58.51,28.05035,0,871.025,0,9.19,3.062,190,3.096,3.945,18.095,0.645,51.55,59.2,33.68,35.5
"2016-12-19 15:10:00",266984,0.355,276.2,4.665,58.75,26.73377,0,871.1788,0,8.9,3.066,190,3.099,3.918,17.16282,0.642,51.55,59.14,33.68,35.48
"2016-12-19 15:20:00",266985,0.198,304,4.429,60.91,23.95901,0,871.0419,0,8.98,3.066,182,3.117,3.933,15.48785,0.647,51.55,59.14,33.68,35.48
"2016-12-19 15:30:00",266986,0.132,253.9,4.226,62.5,21.74626,0,871.0419,0,8.65,3.07,190,3.132,3.897,13.95688,0.642,51.55,59.14,33.68,35.48
"2016-12-19 15:40:00",266987,0.152,252,4.135,60.76,19.52961,0,871.1957,0,8.79,3.069,178,3.14,3.879,12.80488,0.656,51.55,59.14,33.68,35.48
"2016-12-19 15:50:00",266988,0.18,250.2,4.139,55.55,17.65153,0,871.1999,0,8.96,3.068,189,3.128,3.886,11.63051,0.659,51.6,59.14,33.69,35.48
"2016-12-19 16:00:00",266989,0.118,248.3,4.031,54.46,14.58336,0,871.3684,0,8.97,3.067,189,3.135,3.911,9.899641,0.679,51.55,59.14,33.68,35.48
"2016-12-19 16:10:00",266990,0.187,228.3,4.025,53.08,11.59315,0,871.4487,0,8.82,3.07,190,3.135,3.938,8.100172,0.701,51.55,59.14,33.68,35.48
"2016-12-19 16:20:00",266991,0.176,232.2,3.905,49.92,7.847209,0,871.4695,0,8.66,3.072,190,3.116,3.985,5.913469,0.763,51.55,59.14,33.68,35.48
"2016-12-19 16:30:00",266992,0.033,219.8,3.622,51.49,3.432261,0,871.5422,0,8.55,3.076,190,3.109,4.04,3.445823,1.066,51.6,59.14,33.69,35.48
"2016-12-19 16:40:00",266993,0.379,197,2.478,66.28,0.208375,0,871.7294,0,8.82,3.082,178,3.099,4.048,0.6368573,0.531,51.6,59.14,33.69,35.48
"2016-12-19 16:50:00",266994,0.469,186.9,1.639,69.76,0,0,871.6709,0,8.91,3.082,186,3.127,4.049,0,0,51.55,59.14,33.68,35.48
"2016-12-19 17:00:00",266995,0.358,186.7,1.454,67.57,0,0,871.5413,0,8.86,3.083,189,3.159,4.025,0,0,51.55,59.14,33.68,35.48
"2016-12-19 17:10:00",266996,0.132,125.9,1.878,64.9,0,0,871.5474,0,8.42,3.086,190,3.184,3.964,0,0,51.55,59.14,33.68,35.48
"2016-12-19 17:20:00",266997,0.089,173.4,1.769,65.06,0,0,871.6215,0,8.22,3.087,189,3.184,3.904,0,0,51.55,59.14,33.68,35.48
"2016-12-19 17:30:00",266998,0.305,186.1,0.995,70.43,0,0,871.7228,0,8.75,3.089,190,3.161,3.882,0,0,51.55,59.14,33.68,35.48
"2016-12-19 17:40:00",266999,0.237,187.1,0.722,71.67,0,0,871.7375,0,9,3.086,190,3.124,3.881,0,0,51.6,59.14,33.69,35.48
"2016-12-19 17:50:00",267000,0.08,69.19,1.272,66.46,0,0,871.7966,0,8.91,3.084,190,3.099,3.899,0.007581673,0,51.6,59.14,33.69,35.48
"2016-12-19 18:00:00",267001,0.006,69.79,1.069,67.95,0,0,871.8344,0,8.54,3.09,178,3.113,3.923,0,0,51.55,59.14,33.68,35.48
"2016-12-19 18:10:00",267002,0.328,186.8,0.571,71.43,0,0,871.8471,0,8.81,3.09,190,3.139,3.976,0,0,51.6,59.14,33.69,35.48
"2016-12-19 18:20:00",267003,0.142,164.9,1.009,67.75,0,0,871.808,0,8.87,3.081,181,3.165,4.027,0.2578517,0,51.6,59.14,33.69,35.48
"2016-12-19 18:30:00",267004,0.196,28.87,2.764,56.72,0.02359723,0,871.9237,0,8.49,3.078,189,3.158,4.027,1.399262,0.996,51.55,59.14,33.68,35.48
"2016-12-19 18:40:00",267005,0.112,91,2.648,56.81,0,0,871.9919,0,8.58,3.079,189,3.175,4.024,0.1820202,0,51.6,59.14,33.69,35.48
"2016-12-19 18:50:00",267006,0.268,304.8,2.825,56.24,0,0,871.9465,0,8.74,3.077,181,3.181,4.029,0.2464879,0,51.6,59.14,33.69,35.48
"2016-12-19 19:00:00",267007,0.541,0.567,3.223,55.29,0,0,871.9063,0,8.15,3.078,185,3.186,3.987,0.5119374,0,51.55,59.14,33.68,35.48
"2016-12-19 19:10:00",267008,0.26,53.29,3.057,56.1,0,0,872.0622,0,8.53,3.08,189,3.188,3.973,0.04929769,0,51.55,59.14,33.68,35.48
"2016-12-19 19:20:00",267009,0.189,34.48,2.796,57.81,0,0,872.0585,0,8.65,3.075,178,3.189,3.975,0.01516852,0,51.55,59.14,33.68,35.48
"2016-12-19 19:30:00",267010,0.334,15.59,3.486,56.41,0,0,872.1428,0,8.19,3.08,190,3.185,3.98,0.2654491,0,51.55,59.14,33.68,35.48
"2016-12-19 19:40:00",267011,0.154,72.72,2.73,59.64,0,0,872.1345,0,8.8,3.079,189,3.177,3.982,0,0,51.55,59.14,33.68,35.48
"2016-12-19 19:50:00",267012,0.291,313.2,3.074,58.74,0,0,872.1428,0,8.4,3.076,189,3.177,3.997,0.1365167,0,51.55,59.08,33.68,35.47
"2016-12-19 20:00:00",267013,0.404,34.59,3.522,57.39,0,0,872.1407,0,8.45,3.075,190,3.188,3.975,0.1099718,0,51.55,59.14,33.68,35.48
"2016-12-19 20:10:00",267014,0.154,21.94,3.545,57.63,0,0,872.1428,0,8.7,3.074,189,3.188,3.979,0.03033704,0,51.55,59.14,33.68,35.48
"2016-12-19 20:20:00",267015,0.212,356.1,3.459,58.03,0,0,872.1428,0,8.4,3.076,181,3.188,3.97,0.0379213,0,51.55,59.14,33.68,35.48
"2016-12-19 20:30:00",267016,0.238,322.3,3.262,59.54,0,0,872.0754,0,9.2,3.069,189,3.188,3.969,0.01896065,0,51.55,59.14,33.68,35.48
"2016-12-19 20:40:00",267017,0.317,287.2,3.57,59.73,0,0,872.0986,0,8.45,3.075,186,3.188,3.97,0.02654491,0,51.49,59.14,33.66,35.48
"2016-12-19 20:50:00",267018,0.315,179.2,3.33,61.25,0,0,872.1091,0,8.08,3.084,187,3.188,3.968,0.007584261,0,51.55,59.08,33.68,35.47
"2016-12-19 21:00:00",267019,0.19,328.7,3.037,62.19,0,0,872.1323,0,8.82,3.074,188,3.188,3.972,0,0,51.55,59.14,33.68,35.48
"2016-12-19 21:10:00",267020,0.482,322.5,3.463,60.53,0,0,872.145,0,8.86,3.071,190,3.188,3.968,0.03412917,0,51.55,59.14,33.68,35.48
"2016-12-19 21:20:00",267021,0.204,17.35,3.347,60.85,0,0,872.3094,0,8.39,3.08,189,3.188,3.969,0,0,51.55,59.08,33.68,35.47
"2016-12-19 21:30:00",267022,0.131,72.13,2.459,64.8,0,0,872.3768,0,9.13,3.074,173,3.188,3.971,0,0,51.55,59.08,33.68,35.47
"2016-12-19 21:40:00",267023,0.102,78.67,2.874,63.92,0,0,872.3663,0,9.27,3.07,186,3.188,3.974,0.00379213,0,51.55,59.14,33.68,35.48
"2016-12-19 21:50:00",267024,0.171,103.8,3.243,62.63,0,0,872.3906,0,8.44,3.078,189,3.188,3.975,0.1668537,0,51.55,59.08,33.68,35.47
"2016-12-19 22:00:00",267025,0.215,212.9,3.033,63.48,0,0,872.3942,0,8.54,3.077,190,3.188,3.976,0.01137639,0,51.49,59.08,33.66,35.47
"2016-12-19 22:10:00",267026,0.201,202.8,3.029,64.06,0,0,872.3934,0,8.94,3.074,190,3.188,3.974,0.00379213,0,51.55,59.08,33.68,35.47
"2016-12-19 22:20:00",267027,0.314,203.6,3.171,64.7,0,0,872.3262,0,8.34,3.078,169,3.188,3.975,0.09859539,0,51.55,59.08,33.68,35.47
"2016-12-19 22:30:00",267028,0.154,171.8,3.419,64.57,0,0,872.3594,0,8.54,3.076,186,3.188,3.978,0.04550556,0,51.55,59.08,33.68,35.47
"2016-12-19 22:40:00",267029,0.336,261.6,2.998,66.21,0,0,872.1809,0,8.64,3.077,189,3.188,3.977,0,0,51.55,59.08,33.68,35.47
"2016-12-19 22:50:00",267030,0.213,59.33,2.926,66.62,0,0,872.2057,0,9.23,3.075,191,3.188,3.971,0.06067409,0,51.49,59.08,33.66,35.47
"2016-12-19 23:00:00",267031,0.387,1.134,2.638,68.56,0,0,872.147,0,8.81,3.076,192,3.188,3.972,0,0,51.55,59.08,33.68,35.47
"2016-12-19 23:10:00",267032,0.355,103,2.774,67.68,0,0,872.1407,0,8.74,3.076,177,3.188,3.974,0,0,51.49,59.14,33.66,35.48
"2016-12-19 23:20:00",267033,0.342,5.057,2.635,68.45,0,0,872.1471,0,8.43,3.081,192,3.188,3.975,0,0,51.55,59.08,33.68,35.47
"2016-12-19 23:30:00",267034,0.451,32.04,2.206,70.2,0,0,872.1428,0,8.41,3.087,190,3.188,3.971,0,0,51.55,59.08,33.68,35.47
"2016-12-19 23:40:00",267035,0.102,106.9,1.599,73.16,0,0,872.1428,0,8.25,3.093,192,3.187,3.975,0,0,51.49,59.08,33.66,35.47
"2016-12-19 23:50:00",267036,0.199,184,0.491,79.44,0,0,872.1281,0,8.85,3.086,186,3.184,3.999,0,0,51.55,59.08,33.68,35.47
